Flag for Germany Weather past 2 weeks in Konstanz, Baden-Württemberg, Germany

Now
31 °F

Light snow. Overcast.


Feels Like: 31 °F
Forecast: 29 / 37 °F
Wind: 2 mph from West

Location: Konstanz

Current Time: Jan 26, 2015 at 6:13:28 PM

Latest Report: Jan 26, 2015 at 5:00 PM


Visibility: 4 mi

Pressure: 30.29 "Hg

Humidity: 88%

Dew point: 28 °F

Location of KonstanzLocation

Historic Weather in Konstanz — Graph

°F

Konstanz temperature yesterday

Maximum temperature yesterday: 35 °F (at 2:00 PM)
Minimum temperature yesterday: 30 °F (at 8:00 AM)
Average temperature yesterday: 32 °F

Past Weeks' High & Low Weather Summary

 TemperatureHumidityPressure
High54 °F (Jan 13, 4:00 PM)99% (Jan 18, 9:00 AM)30.49 "Hg (Jan 18, 9:00 AM)
Low29 °F (Jan 13, 9:00 AM)28% (Jan 13, 3:00 PM)29.70 "Hg (Jan 16, 6:00 PM)
Average36 °F83%30.08 "Hg
* Reported Jan 11 5:00 PM — Jan 26 5:00 PM, Konstanz, Weather by CustomWeather, © 2014

Note: Actual official high and low records may vary slightly from our data, if they occured in-between our weather recording intervals... More about our weather records

Advertising

Konstanz weather history for previous 24 hours

 ConditionsComfort  
Time TempWeatherWind HumidityBarometerVisibility
5:00 PM
Jan 26
31 °FLight snow. Overcast.2 mph88%30.29 "Hg4 mi
4:00 PM31 °FLight snow. Low clouds.3 mph86%30.30 "Hg4 mi
3:00 PM31 °FLight snow. Ice fog.2 mph84%30.31 "Hg2 mi
2:00 PM32 °FSnow flurries. Overcast.5 mph77%30.33 "Hg11 mi
1:00 PM32 °FLight snow. Overcast.3 mph79%30.35 "Hg9 mi
12:00 PM32 °FSnow flurries. Overcast.2 mph79%30.38 "Hg9 mi
11:00 AM32 °FSnow flurries. Overcast.3 mph81%30.39 "Hg10 mi
10:00 AM32 °FOvercast.2 mph78%30.40 "Hg12 mi
9:00 AM31 °FOvercast.2 mph85%30.41 "Hg7 mi
8:00 AM31 °FOvercast.2 mph90%30.41 "Hg7 mi
7:00 AM31 °FOvercast.1 mph86%30.42 "Hg7 mi
6:00 AM31 °FOvercast.2 mph87%30.41 "Hg7 mi
5:00 AM31 °FLow clouds.1 mph89%30.42 "Hg9 mi
4:00 AM31 °FOvercast.1 mph91%30.42 "Hg7 mi
3:00 AM32 °FOvercast.1 mph93%30.42 "Hg7 mi
2:00 AM32 °FOvercast.1 mph92%30.43 "Hg7 mi
1:00 AM32 °FOvercast.1 mph88%30.43 "Hg9 mi
12:00 AM32 °FOvercast.1 mph88%30.45 "Hg11 mi
11:00 PM
Jan 25
32 °FOvercast.1 mph86%30.45 "Hg12 mi
10:00 PM32 °FOvercast.1 mph92%30.45 "Hg7 mi
9:00 PM33 °FOvercast.2 mph88%30.46 "Hg11 mi
8:00 PM32 °FOvercast.1 mph89%30.47 "Hg8 mi
7:00 PM33 °FOvercast.1 mph87%30.46 "Hg7 mi
6:00 PM32 °FOvercast.1 mph87%30.45 "Hg10 mi
Weather by CustomWeather, © 2014

See weather overviewHow to use our weather pages